Year,Month,Day,Hour,Minute,Value (Times are PST for temperature in C)
2015,02,22,00,00,4.70
2015,02,22,00,01,4.60
2015,02,22,00,02,4.60
2015,02,22,00,03,4.60
2015,02,22,00,04,4.50
2015,02,22,00,05,4.50
2015,02,22,00,06,4.40
2015,02,22,00,07,4.30
2015,02,22,00,08,4.20
2015,02,22,00,09,4.10
2015,02,22,00,10,4.00
2015,02,22,00,11,3.90
2015,02,22,00,12,3.90
2015,02,22,00,13,3.90
2015,02,22,00,14,3.80
2015,02,22,00,15,3.80
2015,02,22,00,16,3.80
2015,02,22,00,17,3.80
2015,02,22,00,18,3.70
2015,02,22,00,19,3.70
2015,02,22,00,20,3.60
2015,02,22,00,21,3.60
2015,02,22,00,22,3.50
2015,02,22,00,23,3.50
2015,02,22,00,24,3.40
2015,02,22,00,25,3.40
2015,02,22,00,26,3.30
2015,02,22,00,27,3.30
2015,02,22,00,28,3.20
2015,02,22,00,29,3.20
2015,02,22,00,30,3.20
2015,02,22,00,31,3.10
2015,02,22,00,32,3.10
2015,02,22,00,33,3.10
2015,02,22,00,34,3.10
2015,02,22,00,35,3.10
2015,02,22,00,36,3.20
2015,02,22,00,37,3.20
2015,02,22,00,38,3.20
2015,02,22,00,39,3.20
2015,02,22,00,40,3.20
2015,02,22,00,41,3.30
2015,02,22,00,42,3.30
2015,02,22,00,43,3.30
2015,02,22,00,44,3.30
2015,02,22,00,45,3.30
2015,02,22,00,46,3.40
2015,02,22,00,47,3.40
2015,02,22,00,48,3.40
2015,02,22,00,49,3.40
2015,02,22,00,50,3.40
2015,02,22,00,51,3.40
2015,02,22,00,52,3.40
2015,02,22,00,53,3.40
2015,02,22,00,54,3.30
2015,02,22,00,55,3.30
2015,02,22,00,56,3.20
2015,02,22,00,57,3.20
2015,02,22,00,58,3.20
2015,02,22,00,59,3.10
2015,02,22,01,00,3.10
2015,02,22,01,01,3.10
2015,02,22,01,02,3.00
2015,02,22,01,03,2.90
2015,02,22,01,04,2.80
2015,02,22,01,05,2.70
2015,02,22,01,06,2.60
2015,02,22,01,07,2.60
2015,02,22,01,08,2.60
2015,02,22,01,09,2.60
2015,02,22,01,10,2.60
2015,02,22,01,11,2.70
2015,02,22,01,12,2.70
2015,02,22,01,13,2.70
2015,02,22,01,14,2.80
2015,02,22,01,15,2.80
2015,02,22,01,16,2.80
2015,02,22,01,17,2.90
2015,02,22,01,18,2.90
2015,02,22,01,19,2.90
2015,02,22,01,20,3.00
2015,02,22,01,21,3.00
2015,02,22,01,22,3.00
2015,02,22,01,23,3.00
2015,02,22,01,24,3.00
2015,02,22,01,25,2.90
2015,02,22,01,26,2.90
2015,02,22,01,27,2.90
2015,02,22,01,28,2.80
2015,02,22,01,29,2.70
2015,02,22,01,30,2.70
2015,02,22,01,31,2.60
2015,02,22,01,32,2.50
2015,02,22,01,33,2.40
2015,02,22,01,34,2.30
2015,02,22,01,35,2.20
2015,02,22,01,36,2.20
2015,02,22,01,37,2.10
2015,02,22,01,38,2.10
2015,02,22,01,39,2.00
2015,02,22,01,40,2.00
2015,02,22,01,41,1.90
2015,02,22,01,42,1.90
2015,02,22,01,43,1.80
2015,02,22,01,44,1.80
2015,02,22,01,45,1.80
2015,02,22,01,46,1.80
2015,02,22,01,47,1.80
2015,02,22,01,48,1.70
2015,02,22,01,49,1.80
2015,02,22,01,50,1.80
2015,02,22,01,51,1.80
2015,02,22,01,52,1.80
2015,02,22,01,53,1.80
2015,02,22,01,54,1.80
2015,02,22,01,55,1.80
2015,02,22,01,56,1.80
2015,02,22,01,57,1.80
2015,02,22,01,58,1.80
2015,02,22,01,59,1.80
2015,02,22,02,00,1.80
2015,02,22,02,01,1.80
2015,02,22,02,02,1.80
2015,02,22,02,03,1.80
2015,02,22,02,04,1.80
2015,02,22,02,05,1.80
2015,02,22,02,06,1.80
2015,02,22,02,07,1.80
2015,02,22,02,08,1.80
2015,02,22,02,09,1.70
2015,02,22,02,10,1.70
2015,02,22,02,11,1.70
2015,02,22,02,12,1.60
2015,02,22,02,13,1.60
2015,02,22,02,14,1.60
2015,02,22,02,15,1.60
2015,02,22,02,16,1.60
2015,02,22,02,17,1.60
2015,02,22,02,18,1.60
2015,02,22,02,19,1.60
2015,02,22,02,20,1.60
2015,02,22,02,21,1.70
2015,02,22,02,22,1.70
2015,02,22,02,23,1.70
2015,02,22,02,24,1.60
2015,02,22,02,25,1.60
2015,02,22,02,26,1.60
2015,02,22,02,27,1.60
2015,02,22,02,28,1.70
2015,02,22,02,29,1.70
2015,02,22,02,30,1.70
2015,02,22,02,31,1.70
2015,02,22,02,32,1.70
2015,02,22,02,33,1.70
2015,02,22,02,34,1.60
2015,02,22,02,35,1.60
2015,02,22,02,36,1.60
2015,02,22,02,37,1.60
2015,02,22,02,38,1.60
2015,02,22,02,39,1.60
2015,02,22,02,40,1.70
2015,02,22,02,41,1.70
2015,02,22,02,42,1.70
2015,02,22,02,43,1.70
2015,02,22,02,44,1.70
2015,02,22,02,45,1.80
2015,02,22,02,46,1.80
2015,02,22,02,47,1.80
2015,02,22,02,48,1.80
2015,02,22,02,49,1.90
2015,02,22,02,50,1.90
2015,02,22,02,51,1.90
2015,02,22,02,52,1.90
2015,02,22,02,53,1.90
2015,02,22,02,54,2.00
2015,02,22,02,55,2.00
2015,02,22,02,56,2.00
2015,02,22,02,57,2.10
2015,02,22,02,58,2.10
2015,02,22,02,59,2.10
2015,02,22,03,00,2.10
2015,02,22,03,01,2.10
2015,02,22,03,02,2.10
2015,02,22,03,03,2.10
2015,02,22,03,04,2.10
2015,02,22,03,05,2.10
2015,02,22,03,06,2.10
2015,02,22,03,07,2.10
2015,02,22,03,08,2.10
2015,02,22,03,09,2.10
2015,02,22,03,10,2.10
2015,02,22,03,11,2.00
2015,02,22,03,12,2.00
2015,02,22,03,13,1.90
2015,02,22,03,14,1.90
2015,02,22,03,15,1.90
2015,02,22,03,16,1.90
2015,02,22,03,17,1.90
2015,02,22,03,18,1.90
2015,02,22,03,19,1.90
2015,02,22,03,20,1.80
2015,02,22,03,21,1.80
2015,02,22,03,22,1.80
2015,02,22,03,23,1.80
2015,02,22,03,24,1.80
2015,02,22,03,25,1.80
2015,02,22,03,26,1.80
2015,02,22,03,27,1.80
2015,02,22,03,28,1.80
2015,02,22,03,29,1.80
2015,02,22,03,30,1.80
2015,02,22,03,31,1.80
2015,02,22,03,32,1.80
2015,02,22,03,33,1.80
2015,02,22,03,34,1.80
2015,02,22,03,35,1.80
2015,02,22,03,36,1.80
2015,02,22,03,37,1.80
2015,02,22,03,38,1.80
2015,02,22,03,39,1.80
2015,02,22,03,40,1.80
2015,02,22,03,41,1.80
2015,02,22,03,42,1.80
2015,02,22,03,43,1.80
2015,02,22,03,44,1.80
2015,02,22,03,45,1.80
2015,02,22,03,46,1.80
2015,02,22,03,47,1.80
2015,02,22,03,48,1.80
2015,02,22,03,49,1.80
2015,02,22,03,50,1.80
2015,02,22,03,51,1.80
2015,02,22,03,52,1.80
2015,02,22,03,53,1.80
2015,02,22,03,54,1.80
2015,02,22,03,55,1.80
2015,02,22,03,56,1.80
2015,02,22,03,57,1.80
2015,02,22,03,58,1.80
2015,02,22,03,59,1.80
2015,02,22,04,00,1.70
2015,02,22,04,01,1.70
2015,02,22,04,02,1.70
2015,02,22,04,03,1.70
2015,02,22,05,02,1.60
2015,02,22,05,03,1.60
2015,02,22,05,04,1.70
2015,02,22,05,05,1.80
2015,02,22,05,06,1.80
2015,02,22,05,07,1.80
2015,02,22,05,08,1.90
2015,02,22,05,09,2.00
2015,02,22,05,10,2.00
2015,02,22,05,11,2.10
2015,02,22,05,12,2.20
2015,02,22,05,13,2.20
2015,02,22,05,14,2.30
2015,02,22,05,15,2.30
2015,02,22,05,16,2.30
2015,02,22,05,17,2.30
2015,02,22,05,18,2.30
2015,02,22,05,19,2.20
2015,02,22,05,20,2.20
2015,02,22,05,21,2.20
2015,02,22,05,22,2.10
2015,02,22,05,23,2.10
2015,02,22,05,24,2.00
2015,02,22,05,25,2.00
2015,02,22,05,26,1.90
2015,02,22,05,27,1.90
2015,02,22,05,28,1.80
2015,02,22,05,29,1.80
2015,02,22,05,30,1.80
2015,02,22,05,31,1.80
2015,02,22,05,32,1.70
2015,02,22,05,33,1.70
2015,02,22,05,34,1.70
2015,02,22,05,35,1.70
2015,02,22,05,36,1.60
2015,02,22,05,37,1.60
2015,02,22,05,38,1.60
2015,02,22,05,39,1.60
2015,02,22,05,40,1.50
2015,02,22,05,41,1.50
2015,02,22,05,42,1.50
2015,02,22,05,43,1.40
2015,02,22,05,44,1.40
2015,02,22,05,45,1.40
2015,02,22,05,46,1.30
2015,02,22,05,47,1.30
2015,02,22,05,48,1.30
2015,02,22,05,49,1.30
2015,02,22,05,50,1.20
2015,02,22,05,51,1.20
2015,02,22,05,52,1.20
2015,02,22,05,53,1.20
2015,02,22,05,54,1.20
2015,02,22,05,55,1.10
2015,02,22,05,56,1.10
2015,02,22,05,57,1.10
2015,02,22,05,58,1.10
2015,02,22,05,59,1.10
2015,02,22,06,00,1.10
2015,02,22,06,01,1.10
2015,02,22,06,02,1.00
2015,02,22,06,03,1.00
2015,02,22,06,04,1.00
2015,02,22,06,05,1.00
2015,02,22,06,06,1.00
2015,02,22,06,07,1.00
2015,02,22,06,08,0.90
2015,02,22,06,09,0.90
2015,02,22,06,10,0.90
2015,02,22,06,11,0.90
2015,02,22,06,12,0.90
2015,02,22,06,13,0.90
2015,02,22,06,14,0.90
2015,02,22,06,15,0.90
2015,02,22,06,16,0.90
2015,02,22,06,17,0.80
2015,02,22,06,18,0.80
2015,02,22,06,19,0.80
2015,02,22,06,20,0.80
2015,02,22,06,21,0.80
2015,02,22,06,22,0.70
2015,02,22,06,23,0.70
2015,02,22,06,24,0.70
2015,02,22,06,25,0.60
2015,02,22,06,26,0.60
2015,02,22,06,27,0.60
2015,02,22,06,28,0.60
2015,02,22,06,29,0.60
2015,02,22,06,30,0.60
2015,02,22,06,31,0.60
2015,02,22,06,32,0.60
2015,02,22,06,33,0.60
2015,02,22,06,34,0.60
2015,02,22,06,35,0.70
2015,02,22,06,36,0.60
2015,02,22,06,37,0.60
2015,02,22,06,38,0.60
2015,02,22,06,39,0.60
2015,02,22,06,40,0.60
2015,02,22,06,41,0.50
2015,02,22,06,42,0.50
2015,02,22,06,43,0.50
2015,02,22,06,44,0.50
2015,02,22,06,45,0.40
2015,02,22,06,46,0.40
2015,02,22,06,47,0.40
2015,02,22,06,48,0.40
2015,02,22,06,49,0.40
2015,02,22,06,50,0.40
2015,02,22,06,51,0.40
2015,02,22,06,52,0.40
2015,02,22,06,53,0.40
2015,02,22,06,54,0.40
2015,02,22,06,55,0.40
2015,02,22,06,56,0.40
2015,02,22,06,57,0.40
2015,02,22,06,58,0.40
2015,02,22,06,59,0.40
2015,02,22,07,00,0.40
2015,02,22,07,01,0.40
2015,02,22,07,02,0.40
2015,02,22,07,03,0.50
2015,02,22,07,04,0.50
2015,02,22,07,05,0.50
2015,02,22,07,06,0.50
2015,02,22,07,07,0.50
2015,02,22,07,08,0.40
2015,02,22,07,09,0.40
2015,02,22,07,10,0.40
2015,02,22,07,11,0.40
2015,02,22,07,12,0.40
2015,02,22,07,13,0.50
2015,02,22,07,14,0.40
2015,02,22,07,15,0.40
2015,02,22,07,16,0.40
2015,02,22,07,17,0.40
2015,02,22,07,18,0.40
2015,02,22,07,19,0.40
2015,02,22,07,20,0.30
2015,02,22,07,21,0.30
2015,02,22,07,22,0.30
2015,02,22,07,23,0.30
2015,02,22,07,24,0.20
2015,02,22,07,25,0.20
2015,02,22,07,26,0.20
2015,02,22,07,27,0.20
2015,02,22,07,28,0.20
2015,02,22,07,29,0.20
2015,02,22,07,30,0.20
2015,02,22,07,31,0.20
2015,02,22,07,32,0.20
2015,02,22,07,33,0.20
2015,02,22,07,34,0.30
2015,02,22,07,35,0.30
2015,02,22,07,36,0.30
2015,02,22,07,37,0.30
2015,02,22,07,38,0.30
2015,02,22,07,39,0.30
2015,02,22,07,40,0.30
2015,02,22,07,41,0.30
2015,02,22,07,42,0.30
2015,02,22,07,43,0.30
2015,02,22,07,44,0.30
2015,02,22,07,45,0.30
2015,02,22,07,46,0.30
2015,02,22,07,47,0.30
2015,02,22,07,48,0.20
2015,02,22,07,49,0.20
2015,02,22,07,50,0.20
2015,02,22,07,51,0.20
2015,02,22,07,52,0.20
2015,02,22,07,53,0.20
2015,02,22,07,54,0.30
2015,02,22,07,55,0.20
2015,02,22,07,56,0.30
2015,02,22,07,57,0.20
2015,02,22,07,58,0.30
2015,02,22,07,59,0.30
2015,02,22,08,00,0.30
2015,02,22,08,01,0.30
2015,02,22,08,02,0.30
2015,02,22,08,03,0.30
2015,02,22,08,04,0.30
2015,02,22,08,05,0.30
2015,02,22,08,06,0.40
2015,02,22,08,07,0.40
2015,02,22,08,08,0.40
2015,02,22,08,09,0.40
2015,02,22,08,10,0.50
2015,02,22,08,11,0.50
2015,02,22,08,12,0.60
2015,02,22,08,13,0.60
2015,02,22,08,14,0.70
2015,02,22,08,15,0.70
2015,02,22,08,16,0.80
2015,02,22,08,17,0.80
2015,02,22,08,18,0.80
2015,02,22,08,19,0.90
2015,02,22,08,20,0.90
2015,02,22,08,21,1.00
2015,02,22,08,22,1.00
2015,02,22,08,23,1.10
2015,02,22,08,24,1.10
2015,02,22,08,25,1.20
2015,02,22,08,26,1.20
2015,02,22,08,27,1.30
2015,02,22,08,28,1.30
2015,02,22,08,29,1.40
2015,02,22,08,30,1.50
2015,02,22,08,31,1.50
2015,02,22,08,32,1.60
2015,02,22,08,33,1.60
2015,02,22,08,34,1.70
2015,02,22,08,35,1.80
2015,02,22,08,36,1.80
2015,02,22,08,37,1.90
2015,02,22,08,38,2.00
2015,02,22,08,39,2.00
2015,02,22,08,40,2.10
2015,02,22,08,41,2.20
2015,02,22,08,42,2.20
2015,02,22,08,43,2.30
2015,02,22,08,44,2.40
2015,02,22,08,45,2.40
2015,02,22,08,46,2.50
2015,02,22,08,47,2.60
2015,02,22,08,48,2.70
2015,02,22,08,49,2.70
2015,02,22,08,50,2.80
2015,02,22,08,51,2.80
2015,02,22,08,52,2.80
2015,02,22,08,53,2.90
2015,02,22,08,54,2.90
2015,02,22,08,55,3.00
2015,02,22,08,56,3.00
2015,02,22,08,57,3.10
2015,02,22,08,58,3.10
2015,02,22,08,59,3.20
2015,02,22,09,00,3.20
2015,02,22,09,01,3.20
2015,02,22,09,02,3.30
2015,02,22,09,03,3.30
2015,02,22,09,04,3.40
2015,02,22,09,05,3.40
2015,02,22,09,06,3.40
2015,02,22,09,07,3.50
2015,02,22,09,08,3.50
2015,02,22,09,09,3.60
2015,02,22,09,10,3.60
2015,02,22,09,11,3.70
2015,02,22,09,12,3.80
2015,02,22,09,13,3.80
2015,02,22,09,14,3.90
2015,02,22,09,15,4.00
2015,02,22,09,16,4.00
2015,02,22,09,17,4.10
2015,02,22,09,18,4.20
2015,02,22,09,19,4.20
2015,02,22,09,20,4.30
2015,02,22,09,21,4.40
2015,02,22,09,22,4.50
2015,02,22,09,23,4.60
2015,02,22,09,24,4.70
2015,02,22,09,25,4.80
2015,02,22,09,26,4.80
2015,02,22,09,27,4.80
2015,02,22,09,28,4.80
2015,02,22,09,29,4.80
2015,02,22,09,30,4.80
2015,02,22,09,31,4.80
2015,02,22,09,32,4.90
2015,02,22,09,33,5.00
2015,02,22,09,34,5.00
2015,02,22,09,35,5.10
2015,02,22,09,36,5.20
2015,02,22,09,37,5.30
2015,02,22,09,38,5.30
2015,02,22,09,39,5.30
2015,02,22,09,40,5.40
2015,02,22,09,41,5.50
2015,02,22,09,42,5.60
2015,02,22,09,43,5.70
2015,02,22,09,44,5.70
2015,02,22,09,45,5.80
2015,02,22,09,46,5.90
2015,02,22,09,47,5.90
2015,02,22,09,48,5.90
2015,02,22,09,49,6.00
2015,02,22,09,50,6.00
2015,02,22,09,51,6.00
2015,02,22,09,52,6.00
2015,02,22,09,53,6.00
2015,02,22,09,54,5.90
2015,02,22,09,55,5.90
2015,02,22,09,56,6.00
2015,02,22,09,57,6.00
2015,02,22,09,58,6.00
2015,02,22,09,59,6.00
2015,02,22,10,00,6.10
2015,02,22,10,01,6.10
2015,02,22,10,02,6.10
2015,02,22,10,03,6.10
2015,02,22,10,04,6.10
2015,02,22,10,05,6.20
2015,02,22,10,06,6.20
2015,02,22,10,07,6.30
2015,02,22,10,08,6.30
2015,02,22,10,09,6.30
2015,02,22,10,10,6.30
2015,02,22,10,11,6.20
2015,02,22,10,12,6.20
2015,02,22,10,13,6.20
2015,02,22,10,14,6.20
2015,02,22,10,15,6.20
2015,02,22,10,16,6.20
2015,02,22,10,17,6.30
2015,02,22,10,18,6.30
2015,02,22,10,19,6.30
2015,02,22,10,20,6.40
2015,02,22,10,21,6.50
2015,02,22,10,22,6.60
2015,02,22,10,23,6.70
2015,02,22,10,24,6.80
2015,02,22,10,25,6.80
2015,02,22,10,26,6.80
2015,02,22,10,27,6.80
2015,02,22,10,28,6.80
2015,02,22,10,29,6.80
2015,02,22,10,30,6.80
2015,02,22,10,31,6.80
2015,02,22,10,32,6.90
2015,02,22,10,33,7.00
2015,02,22,10,34,7.00
2015,02,22,10,35,7.10
2015,02,22,10,36,7.10
2015,02,22,10,37,7.20
2015,02,22,10,38,7.20
2015,02,22,10,39,7.20
2015,02,22,10,40,7.20
2015,02,22,10,41,7.20
2015,02,22,10,42,7.30
2015,02,22,10,43,7.30
2015,02,22,10,44,7.30
2015,02,22,10,45,7.40
2015,02,22,10,46,7.40
2015,02,22,10,47,7.40
2015,02,22,10,48,7.40
2015,02,22,10,49,7.50
2015,02,22,10,50,7.50
2015,02,22,10,51,7.50
2015,02,22,10,52,7.50
2015,02,22,10,53,7.50
2015,02,22,10,54,7.50
2015,02,22,10,55,7.50
2015,02,22,10,56,7.60
2015,02,22,10,57,7.60
2015,02,22,10,58,7.70
2015,02,22,10,59,7.80
2015,02,22,11,00,7.80
2015,02,22,11,01,7.90
2015,02,22,11,02,7.80
2015,02,22,11,03,7.80
2015,02,22,11,04,7.80
2015,02,22,11,05,7.80
2015,02,22,11,06,7.80
2015,02,22,11,07,7.80
2015,02,22,11,08,7.80
2015,02,22,11,09,7.80
2015,02,22,11,10,7.80
2015,02,22,11,11,7.80
2015,02,22,11,12,7.90
2015,02,22,11,13,7.90
2015,02,22,11,14,7.90
2015,02,22,11,15,7.90
2015,02,22,11,16,7.90
2015,02,22,11,17,7.90
2015,02,22,11,18,7.90
2015,02,22,11,19,7.90
2015,02,22,11,20,7.90
2015,02,22,11,21,7.90
2015,02,22,11,22,8.00
2015,02,22,11,23,8.00
2015,02,22,11,24,8.10
2015,02,22,11,25,8.10
2015,02,22,11,26,8.10
2015,02,22,11,27,8.10
2015,02,22,11,28,8.20
2015,02,22,11,29,8.30
2015,02,22,11,30,8.40
2015,02,22,11,31,8.40
2015,02,22,11,32,8.40
2015,02,22,11,33,8.30
2015,02,22,11,34,8.30
2015,02,22,11,35,8.30
2015,02,22,11,36,8.30
2015,02,22,11,37,8.30
2015,02,22,11,38,8.20
2015,02,22,11,39,8.20
2015,02,22,11,40,8.10
2015,02,22,11,41,8.10
2015,02,22,11,42,8.10
2015,02,22,11,43,8.10
2015,02,22,11,44,8.10
2015,02,22,11,45,8.00
2015,02,22,11,46,8.00
2015,02,22,11,47,8.00
2015,02,22,11,48,8.00
2015,02,22,11,49,8.10
2015,02,22,11,50,8.10
2015,02,22,11,51,8.10
2015,02,22,11,52,8.20
2015,02,22,11,53,8.20
2015,02,22,11,54,8.20
2015,02,22,11,55,8.20
2015,02,22,11,56,8.20
2015,02,22,11,57,8.20
2015,02,22,11,58,8.20
2015,02,22,11,59,8.20
2015,02,22,12,00,8.30
2015,02,22,12,01,8.30
2015,02,22,12,02,8.30
2015,02,22,12,03,8.40
2015,02,22,12,04,8.40
2015,02,22,12,05,8.50
2015,02,22,12,06,8.50
2015,02,22,12,07,8.50
2015,02,22,12,08,8.60
2015,02,22,12,09,8.70
2015,02,22,12,10,8.80
2015,02,22,12,11,8.90
2015,02,22,12,12,9.00
2015,02,22,12,13,9.10
2015,02,22,12,14,9.20
2015,02,22,12,15,9.20
2015,02,22,12,16,9.20
2015,02,22,12,17,9.30
2015,02,22,12,18,9.40
2015,02,22,12,19,9.40
2015,02,22,12,20,9.50
2015,02,22,12,21,9.50
2015,02,22,12,22,9.60
2015,02,22,12,23,9.60
2015,02,22,12,24,9.70
2015,02,22,12,25,9.80
2015,02,22,12,26,9.80
2015,02,22,12,27,9.80
2015,02,22,12,28,9.80
2015,02,22,12,29,9.80
2015,02,22,12,30,9.80
2015,02,22,12,31,9.80
2015,02,22,12,32,9.90
2015,02,22,12,33,9.90
2015,02,22,12,34,9.90
2015,02,22,12,35,9.90
2015,02,22,12,36,9.90
2015,02,22,12,37,9.90
2015,02,22,12,38,9.90
2015,02,22,12,39,10.00
2015,02,22,12,40,10.00
2015,02,22,12,41,10.00
2015,02,22,12,42,10.10
2015,02,22,12,43,10.10
2015,02,22,12,44,10.10
2015,02,22,12,45,10.20
2015,02,22,12,46,10.20
2015,02,22,12,47,10.30
2015,02,22,12,48,10.30
2015,02,22,12,49,10.30
2015,02,22,12,50,10.40
2015,02,22,12,51,10.40
2015,02,22,12,52,10.40
2015,02,22,12,53,10.40
2015,02,22,12,54,10.40
2015,02,22,12,55,10.40
2015,02,22,12,56,10.30
2015,02,22,12,57,10.20
2015,02,22,12,58,10.20
2015,02,22,12,59,10.20
2015,02,22,13,00,10.20
2015,02,22,13,01,10.20
2015,02,22,13,02,10.20
2015,02,22,13,03,10.20
2015,02,22,13,04,10.20
2015,02,22,13,05,10.30
2015,02,22,13,06,10.30
2015,02,22,13,07,10.30
2015,02,22,13,08,10.20
2015,02,22,13,09,10.20
2015,02,22,13,10,10.10
2015,02,22,13,11,10.10
2015,02,22,13,12,10.00
2015,02,22,13,13,10.00
2015,02,22,13,14,9.90
2015,02,22,13,15,9.80
2015,02,22,13,16,9.70
2015,02,22,13,17,9.70
2015,02,22,13,18,9.70
2015,02,22,13,19,9.70
2015,02,22,13,20,9.80
2015,02,22,13,21,9.80
2015,02,22,13,22,9.90
2015,02,22,13,23,9.90
2015,02,22,13,24,10.00
2015,02,22,13,25,10.10
2015,02,22,13,26,10.20
2015,02,22,13,27,10.30
2015,02,22,13,28,10.40
2015,02,22,13,29,10.60
2015,02,22,13,30,10.70
2015,02,22,13,31,10.80
2015,02,22,13,32,10.80
2015,02,22,13,33,10.80
2015,02,22,13,34,10.80
2015,02,22,13,35,10.80
2015,02,22,13,36,10.80
2015,02,22,13,37,10.80
2015,02,22,13,38,10.80
2015,02,22,13,39,10.80
2015,02,22,13,40,10.90
2015,02,22,13,41,10.90
2015,02,22,13,42,10.90
2015,02,22,13,43,10.90
2015,02,22,13,44,10.90
2015,02,22,13,45,10.80
2015,02,22,13,46,10.80
2015,02,22,13,47,10.80
2015,02,22,13,48,10.70
2015,02,22,13,49,10.70
2015,02,22,13,50,10.70
2015,02,22,13,51,10.70
2015,02,22,13,52,10.70
2015,02,22,13,53,10.60
2015,02,22,13,54,10.60
2015,02,22,13,55,10.60
2015,02,22,13,56,10.50
2015,02,22,13,57,10.40
2015,02,22,13,58,10.20
2015,02,22,13,59,9.90
2015,02,22,14,00,9.70
2015,02,22,14,01,9.60
2015,02,22,14,02,9.60
2015,02,22,14,03,9.50
2015,02,22,14,04,9.40
2015,02,22,14,05,9.40
2015,02,22,14,06,9.30
2015,02,22,14,07,9.30
2015,02,22,14,08,9.30
2015,02,22,14,09,9.30
2015,02,22,14,10,9.20
2015,02,22,14,11,9.20
2015,02,22,14,12,9.20
2015,02,22,14,13,9.10
2015,02,22,14,14,9.10
2015,02,22,14,15,9.10
2015,02,22,14,16,9.20
2015,02,22,14,17,9.20
2015,02,22,14,18,9.20
2015,02,22,14,19,9.20
2015,02,22,14,20,9.20
2015,02,22,14,21,9.20
2015,02,22,14,22,9.30
2015,02,22,14,23,9.30
2015,02,22,14,24,9.40
2015,02,22,14,25,9.40
2015,02,22,14,26,9.40
2015,02,22,14,27,9.50
2015,02,22,14,28,9.50
2015,02,22,14,29,9.60
2015,02,22,14,30,9.60
2015,02,22,14,31,9.60
2015,02,22,14,32,9.70
2015,02,22,14,33,9.70
2015,02,22,14,34,9.70
2015,02,22,14,35,9.70
2015,02,22,14,36,9.70
2015,02,22,14,37,9.70
2015,02,22,14,38,9.80
2015,02,22,14,39,9.90
2015,02,22,14,40,10.00
2015,02,22,14,41,10.00
2015,02,22,14,42,10.10
2015,02,22,14,43,10.20
2015,02,22,14,44,10.20
2015,02,22,14,45,10.30
2015,02,22,14,46,10.30
2015,02,22,14,47,10.40
2015,02,22,14,48,10.50
2015,02,22,14,49,10.50
2015,02,22,14,50,10.60
2015,02,22,14,51,10.70
2015,02,22,14,52,10.70
2015,02,22,14,53,10.70
2015,02,22,14,54,10.80
2015,02,22,14,55,10.80
2015,02,22,14,56,10.90
2015,02,22,14,57,10.90
2015,02,22,14,58,10.90
2015,02,22,14,59,11.00
2015,02,22,15,00,11.10
2015,02,22,15,01,11.10
2015,02,22,15,02,11.20
2015,02,22,15,03,11.20
2015,02,22,15,04,11.30
2015,02,22,15,05,11.30
2015,02,22,15,06,11.30
2015,02,22,15,07,11.30
2015,02,22,15,08,11.20
2015,02,22,15,09,11.20
2015,02,22,15,10,11.30
2015,02,22,15,11,11.30
2015,02,22,15,12,11.30
2015,02,22,15,13,11.40
2015,02,22,15,14,11.40
2015,02,22,15,15,11.40
2015,02,22,15,16,11.40
2015,02,22,15,17,11.50
2015,02,22,15,18,11.50
2015,02,22,15,19,11.50
2015,02,22,15,20,11.50
2015,02,22,15,21,11.60
2015,02,22,15,22,11.60
2015,02,22,15,23,11.60
2015,02,22,15,24,11.60
2015,02,22,15,25,11.60
2015,02,22,15,26,11.60
2015,02,22,15,27,11.70
2015,02,22,15,28,11.60
2015,02,22,15,29,11.60
2015,02,22,15,30,11.60
2015,02,22,15,31,11.60
2015,02,22,15,32,11.60
2015,02,22,15,33,11.50
2015,02,22,15,34,11.60
2015,02,22,15,35,11.60
2015,02,22,15,36,11.60
2015,02,22,15,37,11.60
2015,02,22,15,38,11.60
2015,02,22,15,39,11.60
2015,02,22,15,40,11.70
2015,02,22,15,41,11.70
2015,02,22,15,42,11.70
2015,02,22,15,43,11.70
2015,02,22,15,44,11.70
2015,02,22,15,45,11.80
2015,02,22,15,46,11.80
2015,02,22,15,47,11.80
2015,02,22,15,48,11.80
2015,02,22,15,49,11.80
2015,02,22,15,50,11.90
2015,02,22,15,51,11.90
2015,02,22,15,52,11.90
2015,02,22,15,53,11.90
2015,02,22,15,54,11.90
2015,02,22,15,55,11.70
2015,02,22,15,56,11.60
2015,02,22,15,57,11.60
2015,02,22,15,58,11.60
2015,02,22,15,59,11.60
2015,02,22,16,00,11.60
2015,02,22,16,01,11.60
2015,02,22,16,02,11.70
2015,02,22,16,03,11.70
2015,02,22,16,04,11.70
2015,02,22,16,05,11.60
2015,02,22,16,06,11.60
2015,02,22,16,07,11.60
2015,02,22,16,08,11.60
2015,02,22,16,09,11.70
2015,02,22,16,10,11.70
2015,02,22,16,11,11.70
2015,02,22,16,12,11.70
2015,02,22,16,13,11.70
2015,02,22,16,14,11.70
2015,02,22,16,15,11.70
2015,02,22,16,16,11.70
2015,02,22,16,17,11.70
2015,02,22,16,18,11.70
2015,02,22,16,19,11.70
2015,02,22,16,20,11.70
2015,02,22,16,21,11.80
2015,02,22,16,22,11.80
2015,02,22,16,23,11.80
2015,02,22,16,24,11.90
2015,02,22,16,25,12.00
2015,02,22,16,26,12.00
2015,02,22,16,27,12.00
2015,02,22,16,28,12.00
2015,02,22,16,29,12.00
2015,02,22,16,30,12.00
2015,02,22,16,31,11.90
2015,02,22,16,32,11.90
2015,02,22,16,33,11.80
2015,02,22,16,34,11.80
2015,02,22,16,35,11.80
2015,02,22,16,36,11.80
2015,02,22,16,37,11.80
2015,02,22,16,38,11.80
2015,02,22,16,39,11.80
2015,02,22,16,40,11.80
2015,02,22,16,41,11.80
2015,02,22,16,42,11.80
2015,02,22,16,43,11.80
2015,02,22,16,44,11.90
2015,02,22,16,45,11.90
2015,02,22,16,46,11.90
2015,02,22,16,47,11.90
2015,02,22,16,48,11.70
2015,02,22,16,49,11.50
2015,02,22,16,50,11.30
2015,02,22,16,51,11.10
2015,02,22,16,52,10.90
2015,02,22,16,53,10.70
2015,02,22,16,54,10.50
2015,02,22,16,55,10.30
2015,02,22,16,56,10.20
2015,02,22,16,57,10.10
2015,02,22,16,58,10.00
2015,02,22,16,59,9.90
2015,02,22,17,00,9.90
2015,02,22,17,01,9.80
2015,02,22,17,02,9.80
2015,02,22,17,03,9.80
2015,02,22,17,04,9.80
2015,02,22,17,05,9.80
2015,02,22,17,06,9.80
2015,02,22,17,07,9.70
2015,02,22,17,08,9.70
2015,02,22,17,09,9.70
2015,02,22,17,10,9.70
2015,02,22,17,11,9.60
2015,02,22,17,12,9.50
2015,02,22,17,13,9.40
2015,02,22,17,14,9.30
2015,02,22,17,15,9.20
2015,02,22,17,16,9.10
2015,02,22,17,17,9.10
2015,02,22,17,18,9.00
2015,02,22,17,19,9.00
2015,02,22,17,20,9.00
2015,02,22,17,21,9.00
2015,02,22,17,22,9.00
2015,02,22,17,23,9.10
2015,02,22,17,24,9.10
2015,02,22,17,25,9.20
2015,02,22,17,26,9.20
2015,02,22,17,27,9.20
2015,02,22,17,28,9.20
2015,02,22,17,29,9.30
2015,02,22,17,30,9.30
2015,02,22,17,31,9.20
2015,02,22,17,32,9.20
2015,02,22,17,33,9.20
2015,02,22,17,34,9.20
2015,02,22,17,35,9.20
2015,02,22,17,36,9.10
2015,02,22,17,37,9.10
2015,02,22,17,38,9.00
2015,02,22,17,39,9.00
2015,02,22,17,40,8.90
2015,02,22,17,41,8.80
2015,02,22,17,42,8.70
2015,02,22,17,43,8.60
2015,02,22,17,44,8.60
2015,02,22,17,45,8.50
2015,02,22,17,46,8.50
2015,02,22,17,47,8.40
2015,02,22,17,48,8.40
2015,02,22,17,49,8.40
2015,02,22,17,50,8.40
2015,02,22,17,51,8.40
2015,02,22,17,52,8.40
2015,02,22,17,53,8.40
2015,02,22,17,54,8.30
2015,02,22,17,55,8.30
2015,02,22,17,56,8.30
2015,02,22,17,57,8.30
2015,02,22,17,58,8.30
2015,02,22,17,59,8.30
2015,02,22,18,00,8.30
2015,02,22,18,01,8.30
2015,02,22,18,02,8.30
2015,02,22,18,03,8.20
2015,02,22,18,04,8.20
2015,02,22,18,05,8.20
2015,02,22,18,06,8.20
2015,02,22,18,07,8.10
2015,02,22,18,08,8.10
2015,02,22,18,09,8.00
2015,02,22,18,10,8.00
2015,02,22,18,11,8.00
2015,02,22,18,12,7.90
2015,02,22,18,13,7.90
2015,02,22,18,14,7.90
2015,02,22,18,15,7.80
2015,02,22,18,16,7.80
2015,02,22,18,17,7.80
2015,02,22,18,18,7.80
2015,02,22,18,19,7.80
2015,02,22,18,20,7.70
2015,02,22,18,21,7.70
2015,02,22,18,22,7.70
2015,02,22,18,23,7.70
2015,02,22,18,24,7.70
2015,02,22,18,25,7.70
2015,02,22,18,26,7.60
2015,02,22,18,27,7.60
2015,02,22,18,28,7.60
2015,02,22,18,29,7.50
2015,02,22,18,30,7.50
2015,02,22,18,31,7.40
2015,02,22,18,32,7.40
2015,02,22,18,33,7.30
2015,02,22,18,34,7.30
2015,02,22,18,35,7.30
2015,02,22,18,36,7.20
2015,02,22,18,37,7.20
2015,02,22,18,38,7.10
2015,02,22,18,39,7.00
2015,02,22,18,40,7.00
2015,02,22,18,41,6.90
2015,02,22,18,42,6.80
2015,02,22,18,43,6.80
2015,02,22,18,44,6.70
2015,02,22,18,45,6.70
2015,02,22,18,46,6.70
2015,02,22,18,47,6.60
2015,02,22,18,48,6.60
2015,02,22,18,49,6.50
2015,02,22,18,50,6.50
2015,02,22,18,51,6.50
2015,02,22,18,52,6.40
2015,02,22,18,53,6.40
2015,02,22,18,54,6.40
2015,02,22,18,55,6.40